{"data":{"norad_id":69521,"intl_designator":"2026-133P","name":"STARLINK-37586","alt_names":[],"object_type":"PAYLOAD","status":"ACTIVE","operator":null,"country":"US","launch_date":"2026-06-12","launch_site_code":"AFETR","launch_vehicle":null,"mission":null,"orbit_class":"UNKNOWN","rcs_meters":null,"size_class":null,"mass_kg":null,"dimensions":null,"purposes":["comms"],"wikipedia_slug":null,"has_3d_model":false,"image_url":null,"decayed_at":null,"tle_current":{"epoch":"2026-09-19T21:38:21.875712Z","epoch_age_seconds":77204,"freshness":"FRESH","line1":"1 69521U 26133P   26262.90164208  .00015235  00000+0  46118-3 0  9994","line2":"2 69521  53.1579 232.3950 0001093  52.9686 307.1416 15.34395926 16677","mean_motion":15.34395926,"eccentricity":0.0001093,"inclination_deg":53.1579,"raan_deg":232.395,"arg_perigee_deg":52.9686,"mean_anomaly_deg":307.1416,"bstar":0.00046118,"rev_number":1667,"period_min":93.848007258069,"perigee_km":461.96764385871,"apogee_km":463.4630541822,"semimajor_km":6840.8523490205,"source":"CELESTRAK","updated_at":"2026-09-20T09:00:44.213111Z"}}}